CW2323 Weather Reports


time (UTC)temp
C
wind
direction
speed
KPH
gust
KPH
rain 1hr
cm
rain 24hr
cm
rain mn
cm
humidity
%
barometer
mb
20260505164239 2 317 6.4 9.7 0.08 0.64 0.38 94 1004.3
20260505163227 2 315 6.4 9.7 0.05 0.61 0.36 93 1004.3
20260505162233 1 12 4.8 6.4 0.08 0.61 0.36 93 1004.3
20260505161240 1 12 1.6 4.8 0.05 0.58 0.33 93 1004.3
20260505160224 2 12 3.2 11.3 0.05 0.58 0.33 93 1004.3
20260505153233 2 44 4.8 9.7 0.05 0.56 0.30 94 1004.3
20260505152240 2 360 4.8 9.7 0.05 0.53 0.28 94 1004.3
20260505151247 2 302 8.0 14.5 0.05 0.53 0.28 94 1004.4
20260505150229 1 329 6.4 14.5 0.08 0.53 0.28 93 1004.4
20260505140228 1 344 6.4 12.9 0.03 0.46 0.20 93 1004.6
20260505130225 2 18 16.1 25.7 0.05 0.43 0.18 93 1003.7
20260505124236 2 350 11.3 27.4 0.08 0.43 0.18 93 1002.8
20260505123227 2 278 12.9 27.4 0.08 0.41 0.15 93 1002.8
20260505122230 2 309 14.5 29.0 0.10 0.41 0.15 93 1002.7
20260505121251 3 321 14.5 29.0 0.10 0.38 0.13 93 1002.5
20260505120234 3 318 16.1 24.1 0.10 0.38 0.13 93 1002.5
20260505115237 3 329 11.3 24.1 0.13 0.38 0.13 92 1002.5
20260505114235 3 300 12.9 27.4 0.10 0.36 0.10 92 1002.4
20260505113239 3 338 12.9 29.0 0.08 0.33 0.08 92 1002.4
20260505112224 3 323 16.1 30.6 0.05 0.30 0.05 92 1002.4
20260505111232 4 339 12.9 22.5 0.03 0.28 0.03 92 1001.9
20260505110237 5 320 9.7 24.1 0.03 0.28 0.03 92 1001.9
20260505101234 5 355 14.5 29.0 0.00 0.25 0.00 91 1001.1
20260505100231 6 355 12.9 25.7 0.00 0.25 0.00 91 1001.1
20260505095234 7 355 17.7 29.0 0.00 0.25 0.00 89 1001.0
20260505094242 7 5 4.8 12.9 0.00 0.25 0.00 92 1001.1
20260505093227 7 355 4.8 9.7 0.00 0.25 0.00 91 1001.1
20260505092233 7 347 4.8 11.3 0.00 0.25 0.00 91 1001.2
20260505091234 7 178 4.8 6.4 0.00 0.25 0.00 91 1000.9
20260505090236 7 177 1.6 4.8 0.00 0.25 0.00 91 1000.9
20260505085240 7 177 3.2 4.8 0.00 0.25 0.00 90 1000.9
20260505084228 7 177 3.2 6.4 0.00 0.25 0.00 91 1000.6
20260505083231 7 177 3.2 4.8 0.00 0.25 0.00 90 1000.6
20260505082251 7 177 0.0 4.8 0.00 0.25 0.00 90 1001.2
20260505081237 7 177 1.6 6.4 0.00 0.25 0.00 90 1001.2
20260505080237 7 178 1.6 6.4 0.00 0.25 0.00 90 1001.2
20260505075235 7 180 1.6 6.4 0.00 0.25 0.00 90 1001.3
20260505074243 7 196 3.2 4.8 0.00 0.25 0.00 90 1001.8
20260505073227 7 196 1.6 6.4 0.00 0.25 0.00 90 1001.8
20260505072233 7 202 1.6 6.4 0.00 0.25 0.00 91 1001.8
20260505071242 7 202 4.8 8.0 0.00 0.25 0.00 91 1001.9
20260505070248 7 306 3.2 6.4 0.00 0.25 0.00 91 1001.9
20260505065227 7 306 1.6 6.4 0.00 0.25 0.00 91 1002.0
20260505064234 7 307 0.0 1.6 0.00 0.25 0.00 91 1002.1
20260505063242 7 307 0.0 4.8 0.00 0.25 0.00 91 1002.1
20260505062236 7 308 4.8 6.4 0.00 0.25 0.00 91 1002.1
20260505061232 7 315 3.2 6.4 0.03 0.25 0.00 91 1002.4
20260505060254 7 317 0.0 0.0 0.03 0.25 0.00 90 1002.4
20260505055241 7 317 0.0 3.2 0.05 0.25 0.25 90 1002.4
20260505054256 7 317 0.0 1.6 0.05 0.25 0.25 90 1001.9
20260505053239 7 317 1.6 3.2 0.08 0.25 0.25 90 1001.9
20260505052225 7 317 0.0 3.2 0.08 0.25 0.25 90 1002.3
20260505051244 7 317 0.0 0.0 0.05 0.23 0.23 90 1002.4
20260505050230 7 317 0.0 3.2 0.08 0.23 0.23 90 1002.4
20260505041230 8 298 11.3 17.7 0.15 0.18 0.18 87 1002.6
20260505040241 8 312 6.4 17.7 0.13 0.15 0.15 85 1002.6
20260505035242 8 321 11.3 24.1 0.10 0.13 0.13 84 1002.5
20260505034226 8 301 6.4 16.1 0.08 0.10 0.10 82 1002.4
20260505033225 9 214 9.7 19.3 0.05 0.08 0.08 79 1002.4
20260505032230 10 240 12.9 20.9 0.03 0.05 0.05 71 1001.9
20260505031240 10 346 3.2 6.4 0.00 0.03 0.03 65 1001.6
20260505030240 10 5 0.0 3.2 0.00 0.03 0.03 65 1001.6
20260505025228 10 5 1.6 8.0 0.00 0.03 0.03 63 1001.3
20260505024228 10 336 0.0 0.0 0.00 0.03 0.03 62 1001.2
20260505023235 10 336 0.0 0.0 0.00 0.03 0.03 61 1001.2
20260505022236 10 336 0.0 0.0 0.00 0.03 0.03 60 1000.8
20260505021236 11 336 0.0 1.6 0.00 0.03 0.03 58 1001.0
20260505020227 11 336 0.0 3.2 0.00 0.03 0.03 58 1001.0
20260505015244 11 336 1.6 4.8 0.00 0.03 0.03 58 1001.0
20260505014229 11 336 1.6 6.4 0.03 0.03 0.03 58 1000.6
20260505013237 11 336 3.2 9.7 0.03 0.03 0.03 58 1000.6
20260505012238 11 321 1.6 11.3 0.03 0.03 0.03 58 1000.6
20260505011240 12 5 1.6 12.9 0.03 0.03 0.03 58 1000.6
20260505010242 12 305 12.9 20.9 0.03 0.03 0.03 56 1000.6
20260505005244 12 293 17.7 33.8 0.03 0.03 0.03 52 1000.6
20260505004307 13 282 12.9 30.6 0.00 0.00 0.00 49 1000.3
20260505003229 14 303 9.7 17.7 0.00 0.00 0.00 36 1000.3
20260505002229 14 309 9.7 20.9 0.00 0.00 0.00 36 1000.2
20260505001236 15 325 8.0 20.9 0.00 0.00 0.00 35 999.9
20260505000241 15 10 9.7 25.7 0.00 0.00 0.00 33 999.9
20260504235229 16 5 16.1 27.4 0.00 0.00 0.00 28 999.5
20260504234250 16 355 14.5 30.6 0.00 0.00 0.00 28 999.3
20260504233233 16 24 14.5 30.6 0.00 0.00 0.00 27 999.3
20260504232234 16 16 16.1 29.0 0.00 0.00 0.00 27 999.1
20260504231237 16 5 14.5 25.7 0.00 0.00 0.00 27 998.6
20260504230227 16 5 19.3 30.6 0.00 0.00 0.00 26 998.6
20260504225231 17 22 19.3 29.0 0.00 0.00 0.00 25 998.7
20260504224234 17 25 17.7 32.2 0.00 0.00 0.00 25 998.4
20260504223256 17 17 17.7 33.8 0.00 0.00 0.00 24 998.4
20260504222239 18 21 24.1 35.4 0.00 0.00 0.00 21 998.1
20260504221259 19 16 14.5 22.5 0.00 0.00 0.00 19 998.1
20260504220238 19 21 14.5 22.5 0.00 0.00 0.00 19 998.1
20260504215243 20 5 12.9 29.0 0.00 0.00 0.00 20 998.1
20260504214243 19 360 12.9 20.9 0.00 0.00 0.00 20 998.2
20260504213226 20 13 11.3 17.7 0.00 0.00 0.00 19 998.2
20260504212227 20 292 9.7 20.9 0.00 0.00 0.00 17 998.5
20260504211305 21 299 11.3 19.3 0.00 0.00 0.00 17 998.7
20260504210230 20 26 9.7 17.7 0.00 0.00 0.00 20 998.7
20260504205257 19 29 11.3 25.7 0.00 0.00 0.00 20 998.8
20260504204238 19 360 14.5 22.5 0.00 0.00 0.00 20 998.9
20260504203242 19 355 11.3 27.4 0.00 0.00 0.00 20 998.9
20260504202228 19 360 12.9 27.4 0.00 0.00 0.00 20 999.1
20260504201238 19 5 12.9 29.0 0.00 0.00 0.00 20 999.2
20260504200235 19 11 14.5 29.0 0.00 0.00 0.00 20 999.2
20260504195238 19 360 14.5 24.1 0.00 0.00 0.00 20 999.1
20260504194240 20 5 11.3 33.8 0.00 0.00 0.00 19 999.0
20260504193250 20 20 9.7 25.7 0.00 0.00 0.00 19 999.0
20260504192236 20 304 8.0 20.9 0.00 0.00 0.00 22 999.1
20260504191239 18 53 11.3 27.4 0.00 0.00 0.00 22 999.1
20260504190246 18 5 12.9 16.1 0.00 0.00 0.00 21 999.1
20260504185230 18 355 9.7 27.4 0.00 0.00 0.00 24 999.0
20260504184234 17 360 9.7 24.1 0.00 0.00 0.00 27 999.3
20260504183245 16 22 6.4 19.3 0.00 0.00 0.00 27 999.3
20260504182246 16 302 9.7 37.0 0.00 0.00 0.00 25 999.2
20260504181227 17 280 25.7 33.8 0.00 0.00 0.00 24 999.0
20260504180229 19 17 12.9 19.3 0.00 0.00 0.00 22 999.0
20260504175228 19 17 12.9 19.3 0.00 0.00 0.00 16 999.2
20260504174235 20 334 12.9 20.9 0.00 0.00 0.00 16 999.3
20260504173238 20 5 3.2 11.3 0.00 0.00 0.00 16 999.3
20260504172241 21 5 6.4 11.3 0.00 0.00 0.00 16 999.5
20260504171228 21 305 9.7 16.1 0.00 0.00 0.00 16 999.8
20260504170254 21 5 6.4 14.5 0.00 0.00 0.00 16 999.8